IRIDIUM 142

Last updated on Sun Jun 21 2026 00:03:14 GMT+0000 (Coordinated Universal Time)

1 43256U 18030H 26171.38920678 .00000075 00000+0 19710-4 0 9995 2 43256 86.3960 289.0103 0002130 99.0648 261.0789 14.34217798430599
UTC large
Height (km)
Speed (km/s)
/
Latitude / Longitude
Inclination (degrees)
Orbital Period (minutes)
Azimuth
Elevation
Range (km)
Doppler Factor

Next 0 passes for location: London (51.5072 / 0.1276)

No passes found over London.
IRIDIUM 142